AEZ2602 LIRF-LICJ

Flight info

Callsign AEZ2602
Flight time N/A
Altitude 29000
Route ROTUN DCT GIANO
Aircraft B738/M-SDE2E3FGHIRWXY/LB1

Departure

Time N/A
Airport Rome–Fiumicino Leonardo da Vinci International Airport (LIRF)

Arrival

Time 2026-05-06 08:17
Airport Falcone–Borsellino Airport (LICJ)
Time Latitude Longitude Altitude Speed Heading
2026-05-06 07:38 41.10556 12.15616 14092 ft 359 kts 178°
2026-05-06 07:39 41.08069 12.15942 14101 ft 359 kts 178°
2026-05-06 07:39 41.05588 12.16272 14095 ft 358 kts 178°
2026-05-06 07:39 41.03119 12.16602 14097 ft 358 kts 178°
2026-05-06 07:39 41.00641 12.16935 14101 ft 359 kts 178°
2026-05-06 07:40 40.98155 12.17268 14109 ft 359 kts 178°
2026-05-06 07:40 40.95672 12.17602 14092 ft 359 kts 178°
2026-05-06 07:40 40.93183 12.17936 14101 ft 359 kts 178°
2026-05-06 07:40 40.90696 12.18270 14100 ft 360 kts 178°
2026-05-06 07:41 40.88207 12.18604 14102 ft 360 kts 178°
2026-05-06 07:41 40.85711 12.18938 14104 ft 361 kts 178°
2026-05-06 07:41 40.83210 12.19273 14105 ft 362 kts 178°
2026-05-06 07:41 40.80704 12.19608 14104 ft 362 kts 178°
2026-05-06 07:42 40.78199 12.19943 14103 ft 362 kts 178°
2026-05-06 07:42 40.75688 12.20278 14103 ft 363 kts 178°
2026-05-06 07:42 40.73176 12.20614 14104 ft 363 kts 178°
2026-05-06 07:42 40.70665 12.20949 14098 ft 362 kts 178°
2026-05-06 07:43 40.68161 12.21283 14098 ft 362 kts 178°
2026-05-06 07:43 40.65657 12.21617 14103 ft 361 kts 178°
2026-05-06 07:43 40.63156 12.21950 14104 ft 361 kts 178°
2026-05-06 07:43 40.60657 12.22282 14102 ft 361 kts 178°
2026-05-06 07:44 40.58161 12.22614 14102 ft 361 kts 178°
2026-05-06 07:44 40.55664 12.22945 14104 ft 361 kts 178°
2026-05-06 07:44 40.53164 12.23277 14103 ft 361 kts 178°
2026-05-06 07:44 40.50667 12.23608 14101 ft 360 kts 178°
2026-05-06 07:45 40.48173 12.23939 14102 ft 360 kts 178°
2026-05-06 07:45 40.45679 12.24269 14095 ft 360 kts 178°
2026-05-06 07:45 40.43220 12.24594 14103 ft 360 kts 178°
2026-05-06 07:45 40.40727 12.24924 14104 ft 360 kts 178°
2026-05-06 07:46 40.38230 12.25253 14106 ft 360 kts 178°
2026-05-06 07:46 40.35738 12.25582 14104 ft 360 kts 178°
2026-05-06 07:46 40.33241 12.25912 14103 ft 360 kts 178°
2026-05-06 07:46 40.30747 12.26240 14108 ft 360 kts 178°
2026-05-06 07:47 40.28248 12.26569 14107 ft 361 kts 178°
2026-05-06 07:47 40.25753 12.26898 14099 ft 361 kts 178°
2026-05-06 07:47 40.23256 12.27226 14093 ft 360 kts 178°
2026-05-06 07:47 40.20774 12.27552 14093 ft 360 kts 178°
2026-05-06 07:48 40.18283 12.27880 14097 ft 360 kts 178°
2026-05-06 07:48 40.15793 12.28207 14104 ft 359 kts 178°
2026-05-06 07:48 40.13308 12.28532 14099 ft 359 kts 178°
2026-05-06 07:48 40.10823 12.28858 14103 ft 359 kts 179°
2026-05-06 07:49 40.08339 12.29183 14103 ft 359 kts 179°
2026-05-06 07:49 40.05857 12.29508 14106 ft 359 kts 179°
2026-05-06 07:49 40.03370 12.29833 14105 ft 359 kts 179°
2026-05-06 07:49 40.00885 12.30157 14098 ft 359 kts 178°
2026-05-06 07:50 39.98403 12.30481 14102 ft 359 kts 178°
2026-05-06 07:50 39.95914 12.30806 14104 ft 359 kts 178°
2026-05-06 07:50 39.93429 12.31130 14101 ft 359 kts 178°
2026-05-06 07:50 39.90941 12.31454 14104 ft 359 kts 179°
2026-05-06 07:51 39.88455 12.31778 14103 ft 359 kts 179°
2026-05-06 07:51 39.85968 12.32101 14103 ft 359 kts 178°
2026-05-06 07:51 39.83484 12.32424 14101 ft 359 kts 179°
2026-05-06 07:51 39.80996 12.32747 14084 ft 359 kts 178°
2026-05-06 07:52 39.78511 12.33069 14089 ft 359 kts 178°
2026-05-06 07:52 39.76024 12.33392 14092 ft 359 kts 178°
2026-05-06 07:52 39.73540 12.33714 14099 ft 359 kts 178°
2026-05-06 07:52 39.71050 12.34036 14102 ft 359 kts 178°
2026-05-06 07:53 39.68568 12.34357 14103 ft 359 kts 178°
2026-05-06 07:53 39.66084 12.34679 14106 ft 359 kts 178°
2026-05-06 07:53 39.63596 12.35000 14101 ft 359 kts 178°
2026-05-06 07:53 39.61116 12.35320 14098 ft 359 kts 178°
2026-05-06 07:54 39.58624 12.35642 14094 ft 359 kts 178°
2026-05-06 07:54 39.56135 12.35963 14101 ft 359 kts 178°
2026-05-06 07:54 39.53650 12.36283 14107 ft 360 kts 178°
2026-05-06 07:54 39.51185 12.36905 14094 ft 365 kts 164°
2026-05-06 07:55 39.48899 12.38377 14116 ft 370 kts 150°
2026-05-06 07:55 39.46808 12.40248 14111 ft 371 kts 148°
2026-05-06 07:55 39.44683 12.42148 14088 ft 372 kts 149°
2026-05-06 07:55 39.42547 12.44036 14103 ft 372 kts 149°
2026-05-06 07:56 39.40420 12.45953 14107 ft 374 kts 146°
2026-05-06 07:56 39.38512 12.48278 14114 ft 378 kts 136°
2026-05-06 07:56 39.36756 12.50817 14103 ft 380 kts 134°
2026-05-06 07:56 39.35024 12.53397 14091 ft 380 kts 134°
2026-05-06 07:57 39.33299 12.55983 14097 ft 380 kts 134°
2026-05-06 07:57 39.31580 12.58573 14101 ft 379 kts 134°
2026-05-06 07:57 39.29846 12.61134 14100 ft 378 kts 137°
2026-05-06 07:57 39.27978 12.63514 14113 ft 376 kts 140°
2026-05-06 07:58 39.26076 12.65824 14109 ft 376 kts 140°
2026-05-06 07:58 39.24162 12.68125 14104 ft 376 kts 140°
2026-05-06 07:58 39.22246 12.70420 14103 ft 376 kts 141°
2026-05-06 07:58 39.20327 12.72713 13928 ft 377 kts 141°
2026-05-06 07:59 39.18411 12.74997 13744 ft 374 kts 141°
2026-05-06 07:59 39.16508 12.77265 13538 ft 372 kts 141°
2026-05-06 07:59 39.14609 12.79527 13343 ft 371 kts 141°
2026-05-06 07:59 39.12735 12.81766 13152 ft 364 kts 141°
2026-05-06 08:00 39.10905 12.83954 12931 ft 354 kts 141°
2026-05-06 08:00 39.09130 12.86083 12725 ft 344 kts 141°
2026-05-06 08:00 39.07399 12.88158 12523 ft 338 kts 141°
2026-05-06 08:00 39.05690 12.90203 12332 ft 334 kts 141°
2026-05-06 08:01 39.03994 12.92230 12147 ft 331 kts 141°
2026-05-06 08:01 39.02311 12.94236 11963 ft 329 kts 141°
2026-05-06 08:01 39.00624 12.96244 11782 ft 332 kts 141°
2026-05-06 08:01 38.98915 12.98271 11605 ft 335 kts 141°
2026-05-06 08:02 38.97211 13.00289 11414 ft 333 kts 141°
2026-05-06 08:02 38.95513 13.02299 11227 ft 331 kts 141°
2026-05-06 08:02 38.93824 13.04295 11047 ft 329 kts 141°
2026-05-06 08:02 38.92144 13.06280 10868 ft 328 kts 141°
2026-05-06 08:03 38.90466 13.08259 10680 ft 327 kts 141°
2026-05-06 08:03 38.88790 13.10234 10388 ft 326 kts 141°
2026-05-06 08:03 38.87132 13.12186 10096 ft 321 kts 141°
2026-05-06 08:03 38.85494 13.14113 9794 ft 317 kts 141°
2026-05-06 08:04 38.83899 13.15990 9483 ft 314 kts 141°
2026-05-06 08:04 38.82218 13.17784 9141 ft 306 kts 154°
2026-05-06 08:04 38.80289 13.18648 8857 ft 294 kts 172°
2026-05-06 08:04 38.78304 13.19214 8550 ft 291 kts 171°
2026-05-06 08:05 38.76346 13.19818 8252 ft 289 kts 170°
2026-05-06 08:05 38.74402 13.20424 7937 ft 286 kts 169°
2026-05-06 08:05 38.72468 13.21027 7574 ft 287 kts 169°
2026-05-06 08:05 38.70528 13.21630 7206 ft 287 kts 169°
2026-05-06 08:06 38.68592 13.22231 6853 ft 286 kts 169°
2026-05-06 08:06 38.66655 13.22832 6497 ft 286 kts 169°
2026-05-06 08:06 38.64722 13.23431 6123 ft 286 kts 168°
2026-05-06 08:06 38.62792 13.24028 5743 ft 285 kts 168°
2026-05-06 08:07 38.60866 13.24624 5367 ft 285 kts 168°
2026-05-06 08:07 38.58942 13.25219 4997 ft 284 kts 168°
2026-05-06 08:07 38.57019 13.25813 4626 ft 284 kts 168°
2026-05-06 08:07 38.55100 13.26405 4245 ft 284 kts 167°
2026-05-06 08:08 38.53178 13.26998 3875 ft 283 kts 167°
2026-05-06 08:08 38.51273 13.27586 3515 ft 283 kts 167°
2026-05-06 08:08 38.49366 13.28174 3149 ft 282 kts 166°
2026-05-06 08:08 38.47475 13.28756 3027 ft 273 kts 166°
2026-05-06 08:09 38.45668 13.29312 2994 ft 261 kts 166°
2026-05-06 08:09 38.43944 13.29842 2984 ft 248 kts 166°
2026-05-06 08:09 38.42309 13.30345 2986 ft 236 kts 166°
2026-05-06 08:09 38.40751 13.30824 2990 ft 223 kts 166°
2026-05-06 08:10 38.39280 13.31277 3022 ft 214 kts 166°
2026-05-06 08:10 38.37838 13.31720 3021 ft 214 kts 166°
2026-05-06 08:10 38.36390 13.32165 3021 ft 214 kts 166°
2026-05-06 08:10 38.34949 13.32608 3004 ft 213 kts 166°
2026-05-06 08:11 38.33512 13.33049 2997 ft 212 kts 166°
2026-05-06 08:11 38.32081 13.33487 2993 ft 211 kts 166°
2026-05-06 08:11 38.30659 13.33924 3005 ft 210 kts 166°
2026-05-06 08:11 38.29265 13.34350 2999 ft 210 kts 166°
2026-05-06 08:12 38.27843 13.34758 3012 ft 209 kts 172°
2026-05-06 08:12 38.26428 13.34452 3009 ft 212 kts 211°
2026-05-06 08:12 38.25558 13.33050 3007 ft 209 kts 248°
2026-05-06 08:12 38.25117 13.31359 2985 ft 193 kts 243°
2026-05-06 08:13 38.24547 13.29928 2942 ft 174 kts 241°
2026-05-06 08:13 38.24090 13.28548 2789 ft 164 kts 245°
2026-05-06 08:13 38.23661 13.27220 2640 ft 160 kts 244°
2026-05-06 08:13 38.23242 13.25956 2412 ft 151 kts 244°
2026-05-06 08:14 38.22838 13.24749 2189 ft 146 kts 244°
2026-05-06 08:14 38.22437 13.23563 2006 ft 147 kts 245°
2026-05-06 08:14 38.22031 13.22349 1814 ft 150 kts 245°
2026-05-06 08:14 38.21625 13.21139 1612 ft 147 kts 245°
2026-05-06 08:15 38.21223 13.19944 1415 ft 147 kts 245°
2026-05-06 08:15 38.20821 13.18747 1214 ft 146 kts 246°
2026-05-06 08:15 38.20422 13.17560 1026 ft 145 kts 246°
2026-05-06 08:15 38.20030 13.16390 833 ft 146 kts 248°
2026-05-06 08:16 38.19668 13.15208 696 ft 143 kts 251°
2026-05-06 08:16 38.19301 13.14041 524 ft 138 kts 244°
2026-05-06 08:16 38.18887 13.12997 247 ft 128 kts 246°
2026-05-06 08:16 38.18548 13.11986 103 ft 118 kts 247°
2026-05-06 08:17 38.18253 13.11097 65 ft 98 kts 248°
2026-05-06 08:17 38.18049 13.10473 66 ft 55 kts 247°
2026-05-06 08:17 38.18023 13.10187 64 ft 11 kts 277°
2026-05-06 08:17 38.18024 13.10174 63 ft 0 kts 277°
2026-05-06 08:18 38.18024 13.10173 63 ft 0 kts 277°
2026-05-06 08:18 38.18026 13.10151 66 ft 12 kts 277°
2026-05-06 08:18 38.18040 13.10008 65 ft 17 kts 288°
2026-05-06 08:18 38.18075 13.09985 60 ft 7 kts 35°
2026-05-06 08:19 38.18132 13.10110 63 ft 26 kts 62°
2026-05-06 08:19 38.18209 13.10317 62 ft 17 kts 52°
2026-05-06 08:19 38.18311 13.10430 64 ft 16 kts 53°
2026-05-06 08:19 38.18365 13.10484 58 ft 0 kts 26°
2026-05-06 08:20 38.18372 13.10489 60 ft 5 kts 25°
2026-05-06 08:20 38.18415 13.10511 60 ft 4 kts 22°
2026-05-06 08:20 38.18452 13.10566 60 ft 2 kts 59°
2026-05-06 08:20 38.18491 13.10578 64 ft 11 kts 345°
2026-05-06 08:21 38.18517 13.10565 57 ft 1 kts 337°
2026-05-06 08:21 38.18555 13.10543 59 ft 5 kts 335°
2026-05-06 08:21 38.18567 13.10548 59 ft 0 kts 108°
2026-05-06 08:22 38.18533 13.10556 64 ft 0 kts 337°